MCBH Kaneohe Bay, HI

1:35 PM HST on February 24, 2017 (GMT -1000)
Kaneohe Bay Marine Corps Air Facility

Weather History for PHNG - September, 2014

Change the Weather History Date:

Tuesday, September 2, 2014

  Actual Average Record
Temperature  
Mean Temperature 80 °F -  
Max Temperature 84 °F 81 °F 89 °F (2015)
Min Temperature 75 °F 73 °F 73 °F (1998)
Cooling Degree Days 14    
Growing Degree Days 30 (Base 50)    
Moisture  
Dew Point 73 °F    
Average Humidity 80    
Maximum Humidity 96    
Minimum Humidity 67    
Precipitation  
Precipitation 0.01 in - - ()
Sea Level Pressure  
Sea Level Pressure 30.01 in    
Wind  
Wind Speed 3 mph (ENE)    
Max Wind Speed 9 mph    
Max Gust Speed -    
Visibility 8 miles    
Events      
Averages and records for this station are not official NWS values.
T = Trace of Precipitation, MM = Missing Value Source: NWS Daily Summary

Daily Weather History Graph

Daily Weather History Graph

Search for Another Location

Airport or City:

Trip Planner

Search our weather history database for the weather conditions in past years. The results will help you decide how hot, cold, wet, or windy it might be!

Date:

Astronomy

Sep. 02, 2014 Rise Set
Actual Time 6:14 AM HST 6:46 PM HST
Civil Twilight 5:52 AM HST 7:08 PM HST
Nautical Twilight 5:25 AM HST 7:35 PM HST
Astronomical Twilight 4:59 AM HST 8:01 PM HST
Moon 1:18 PM HST (9/2) No Moon Set
Length of Visible Light 13h 16m
Length of Day
12h 31m
First Quarter, 55% of the Moon is Illuminated
Sep 2
First Quarter
Sep 8
Full
Sep 15
Last Quarter
Sep 23
New
Oct 1
First Quarter

Hourly Weather History & Observations

Time (HST) Temp. Heat Index Dew Point Humidity Pressure Visibility Wind Dir Wind Speed Gust Speed Precip Events Conditions
12:57 AM 75.2 °F - 73.9 °F 96% 30.01 in 9.0 mi Calm Calm - N/A   Scattered Clouds
1:57 AM 75.2 °F - 73.9 °F 96% 30.00 in 9.0 mi Calm Calm - N/A   Partly Cloudy
2:57 AM 75.2 °F - 73.0 °F 93% 29.99 in 9.0 mi Calm Calm - N/A   Mostly Cloudy
3:29 AM - - - N/A% 30.00 in 6.2 mi Calm Calm - N/A   Mostly Cloudy
3:57 AM - - - N/A% 29.99 in 10.0 mi Calm Calm - N/A   Mostly Cloudy
4:27 AM 75.2 °F - 73.4 °F 94% 30.00 in 6.2 mi Calm Calm - 0.01 in   Scattered Clouds
4:57 AM 75.2 °F - 73.9 °F 96% 29.99 in 9.0 mi Calm Calm - 0.01 in   Partly Cloudy
5:57 AM 75.2 °F - 73.0 °F 93% 29.99 in 10.0 mi Calm Calm - N/A   Scattered Clouds
6:57 AM 75.2 °F - 72.0 °F 90% 30.01 in 9.0 mi Calm Calm - N/A   Partly Cloudy
7:26 AM 78.8 °F - 73.4 °F 83% 30.03 in 9.0 mi Calm Calm - N/A   Mostly Cloudy
7:34 AM 78.8 °F - 73.4 °F 83% 30.03 in 9.0 mi Calm Calm - N/A   Scattered Clouds
7:57 AM 78.8 °F - 73.9 °F 85% 30.01 in 10.0 mi Calm Calm - N/A   Scattered Clouds
8:27 AM 80.6 °F 85.4 °F 73.4 °F 79% 30.03 in 9.0 mi ENE 3.5 mph - N/A   Mostly Cloudy
8:57 AM 80.6 °F 85.2 °F 73.0 °F 78% 30.02 in 9.0 mi Variable 5.8 mph - N/A   Mostly Cloudy
9:41 AM 80.6 °F 84.6 °F 71.6 °F 74% 30.03 in 6.2 mi ENE 5.8 mph - N/A   Mostly Cloudy
9:49 AM 80.6 °F 84.6 °F 71.6 °F 74% 30.03 in 6.2 mi Variable 5.8 mph - N/A   Mostly Cloudy
9:57 AM 80.6 °F 84.7 °F 72.0 °F 75% 30.02 in 9.0 mi ENE 6.9 mph - N/A   Mostly Cloudy
10:57 AM 82.4 °F 87.4 °F 72.0 °F 71% 30.01 in 9.0 mi NE 6.9 mph - N/A   Mostly Cloudy
11:57 AM 82.4 °F 87.4 °F 72.0 °F 71% 30.00 in 9.0 mi NE 9.2 mph - N/A   Mostly Cloudy
12:57 PM 84.2 °F 90.6 °F 73.0 °F 69% 29.99 in 9.0 mi ENE 9.2 mph - N/A   Mostly Cloudy
1:57 PM 84.2 °F 89.9 °F 72.0 °F 67% 29.96 in 8.0 mi NE 9.2 mph - N/A   Overcast
2:15 PM 82.4 °F 88.2 °F 73.4 °F 74% 29.97 in 6.2 mi NE 9.2 mph - N/A   Mostly Cloudy
2:57 PM 82.4 °F 87.9 °F 73.0 °F 73% 29.96 in 9.0 mi ENE 8.1 mph - N/A   Partly Cloudy
3:57 PM 82.4 °F 87.4 °F 72.0 °F 71% 29.95 in 9.0 mi ENE 8.1 mph - N/A   Scattered Clouds
4:57 PM 80.6 °F 85.2 °F 73.0 °F 78% 29.96 in 8.0 mi NE 8.1 mph - N/A   Partly Cloudy
5:25 PM 80.6 °F 85.4 °F 73.4 °F 79% 29.98 in 6.2 mi East 6.9 mph - N/A   Mostly Cloudy
5:57 PM 80.6 °F 85.2 °F 73.0 °F 78% 29.98 in 9.0 mi ENE 8.1 mph - N/A   Mostly Cloudy
6:45 PM 80.6 °F 84.6 °F 71.6 °F 74% 30.00 in 6.2 mi ENE 6.9 mph - N/A   Scattered Clouds
6:57 PM 78.8 °F - 72.0 °F 79% 29.99 in 10.0 mi East 4.6 mph - N/A   Partly Cloudy
7:50 PM 78.8 °F - 71.6 °F 78% 30.02 in 6.2 mi East 4.6 mph - N/A   Mostly Cloudy
7:57 PM 78.8 °F - 72.0 °F 79% 30.01 in 10.0 mi Variable 4.6 mph - N/A   Mostly Cloudy
8:28 PM 78.8 °F - 71.6 °F 78% 30.04 in 6.2 mi ENE 5.8 mph - N/A   Mostly Cloudy
8:57 PM 78.8 °F - 72.0 °F 79% 30.03 in 10.0 mi East 6.9 mph - N/A   Scattered Clouds
9:24 PM 78.8 °F - 71.6 °F 78% 30.05 in 6.2 mi Variable 6.9 mph - N/A   Mostly Cloudy
9:36 PM 78.8 °F - 71.6 °F 78% 30.05 in 6.2 mi East 5.8 mph - N/A   Mostly Cloudy
9:57 PM 78.8 °F - 72.0 °F 79% 30.04 in 10.0 mi East 4.6 mph - N/A   Scattered Clouds
10:57 PM 78.8 °F - 71.1 °F 77% 30.03 in 10.0 mi East 3.5 mph - N/A   Partly Cloudy
11:50 PM 77.0 °F - 71.6 °F 83% 30.03 in 6.2 mi East 6.9 mph - N/A   Mostly Cloudy
11:57 PM 77.0 °F - 72.0 °F 84% 30.02 in 9.0 mi East 5.8 mph - N/A   Mostly Cloudy